Regional Weather Roundup
Issued by NWS

Home | Current Version | Previous Version | Graphics & Text | Print | Product List | Glossary On
Versions: 1 2 3 4 5 6 7 8 9 10 11 12 13 14 15 16 17 18 19 20 21 22 23 24 25 26 27 28 29 30 31 32 33 34 35 36 37 38 39 40 41 42 43 44 45 46 47 48 49 50
000
ASUS43 KMKX 212100
RWRWI

WISCONSIN REGIONAL WEATHER ROUNDUP
NATIONAL WEATHER SERVICE MILWAUKEE/SULLIVAN WI
400 PM CDT THU SEP 21 2017

NOTE: "FAIR" INDICATES FEW OR NO CLOUDS BELOW 12,000 FEET WITH NO
SIGNIFICANT WEATHER AND/OR OBSTRUCTIONS TO VISIBILITY.

WIZ001-002-006>008-014>016-023>028-212200-
NORTHWEST WISCONSIN

CITY           SKY/WX    TMP DP  RH WIND       PRES   REMARKS
SUPERIOR ARPT  MOSUNNY   64  59  85 E15G22    29.93F
ASHLAND        SUNNY     70  58  65 NE12      29.95F
HAYWARD        SUNNY     80  63  55 SE13      29.91F HX  81
SIREN          SUNNY     81  60  49 SE12      29.88F HX  81
CUMBERLAND     MOSUNNY   77  64  65 SE8       29.90F
RICE LAKE      MOSUNNY   79  67  64 SE15      29.92F HX  81
CHETEK         CLOUDY    76  69  79 MISG      29.92S
LADYSMITH      MOSUNNY   77  67  71 SE10G16   29.96S
EAU CLAIRE     NOT AVBL
MENOMONIE      PTSUNNY   80  69  69 E12       29.90F HX  82
NEW RICHMOND   SUNNY     80  65  59 SE15G21   29.87F HX  82
OSCEOLA        SUNNY     81  65  58 SE17      29.88F HX  83
$$

WIZ003>005-009-010-017-018-212200-
NORTH CENTRAL WISCONSIN

CITY           SKY/WX    TMP DP  RH WIND       PRES   REMARKS
MANITOWISH WTR SUNNY     76  66  72 S6        29.98S
ARBOR VITAE    SUNNY     80  66  62 S9        29.98F HX  82
WOODRUFF       SUNNY     80  66  62 S9        29.98F HX  82
RHINELANDER    PTSUNNY   77  68  73 SE10      30.00S
EAGLE RIVER    MOSUNNY   79  60  52 S7        29.99F HX  80
LAND O LAKES   SUNNY     79  62  55 SE10      30.01F HX  80
PHILLIPS       PTSUNNY   78  68  70 SE10      29.96S HX  80
TOMAHAWK       CLOUDY    76  66  72 SE3       29.99S
MEDFORD        CLOUDY    71  67  87 S9        29.98S
MERRILL        CLOUDY    74  69  83 SE8       29.99F
$$

WIZ029-030-035-036-043>047-212200-
CENTRAL WISCONSIN

CITY           SKY/WX    TMP DP  RH WIND       PRES   REMARKS
WAUSAU         CLOUDY    76  67  73 SE9       29.98S
MOSINEE        MOSUNNY   75  70  83 SE7       30.00F
MARSHFIELD     MOSUNNY   79  66  64 SE12      29.97F HX  81
STEVENS POINT  PTSUNNY   78  69  73 S9        29.99F
WAUPACA        MOSUNNY   84  66  54 S8        29.98F HX  86
WAUTOMA        CLOUDY    83  65  54 S7        29.98F HX  85
WISC RAPIDS    PTSUNNY   82  68  62 S8G20     29.98F HX  85
CAMP DOUGLAS   NOT AVBL
$$

WIZ011>013-019>022-031-037>040-048>050-212200-
NORTHEAST WISCONSIN

CITY           SKY/WX    TMP DP  RH WIND       PRES   REMARKS
ANTIGO         CLOUDY    72  68  88 SE10      30.02S
SHAWANO        PTSUNNY   79  70  73 SE3       29.99F HX  81
OCONTO         CLOUDY    75  68  79 E3        30.00S
STURGEON BAY   SUNNY     78  68  71 E8        30.01S HX  80
GREEN BAY      CLOUDY    81  72  74 NE8       29.99S HX  85
MANITOWOC      CLOUDY    73  67  81 E6        30.01F
APPLETON       PTSUNNY   82  64  54 S8        29.98F HX  84
CLINTONVILLE   MOSUNNY   81  68  65 SW3       29.99F HX  83
OSHKOSH        CLOUDY    84  66  54 S9        29.98F HX  86
$$

WIZ032>034-041-042-053>061-212200-
SOUTHWEST WISCONSIN

CITY           SKY/WX    TMP DP  RH WIND       PRES   REMARKS
LA CROSSE      NOT AVBL
SPARTA         SUNNY     82  64  54 S9        29.93F HX  84
VIROQUA        SUNNY     84  65  52 SE10G16   29.95F HX  85
BOSCOBEL       CLOUDY    89  61  38 VRB7      29.92F HX  89
PRAIRIE DU CHI CLOUDY    87  59  38 SE10      29.91S HX  86
PLATTEVILLE    CLOUDY    85  59  40 SE13      29.97S HX  85
$$

WIZ056-057-062-063-064-067-068-212200-
SOUTH CENTRAL WISCONSIN

CITY           SKY/WX    TMP DP  RH WIND       PRES   REMARKS
REEDSBURG      SUNNY     83  65  54 SE3       29.96F HX  85
BARABOO/DELLS  SUNNY     83  62  49 SE9       29.97F HX  84
LONE ROCK      NOT AVBL
MINERAL POINT  MOSUNNY   86  61  42 S10G18    29.97F HX  86
MADISON        PTSUNNY   84  69  60 SE9       29.97S HX  88
MIDDLETON      PTSUNNY   84  68  58 SE9       29.98F HX  87
WATERTOWN      CLOUDY    83  68  60 E6        29.97F HX  85
MONROE         CLOUDY    82  61  47 S7        29.98F HX  83
JANESVILLE     PTSUNNY   91  57  31 SE8G17    29.96F HX  90
$$

WIZ051-052-058>065-066-070>072-212200-
SOUTHEAST WISCONSIN

CITY           SKY/WX    TMP DP  RH WIND       PRES   REMARKS
MILWAUKEE      CLOUDY    81  69  67 SE8       29.99F HX  84
WAUKESHA       SUNNY     82  64  54 E9        30.00F HX  84
MILWAUKEE/TIMM SUNNY     84  61  45 E8        30.01F HX  84
RACINE         PTSUNNY   79  70  74 SE12      30.01F HX  82
BURLINGTON     MOSUNNY   92  63  38 SE10      29.98F HX  93
KENOSHA        MOSUNNY   84  68  58 E10       30.00F HX  87
FOND DU LAC    MOSUNNY   85  60  42 S7        29.99F HX  85
SHEBOYGAN      MOSUNNY   82  72  71 E9        30.00F HX  87
WEST BEND        N/A     81  68  65 E6        30.00F HX  83
JUNEAU         PTSUNNY   81  65  59 SE5       30.00F HX  82
$$

LSZ147-162-212200-
LAKE SUPERIOR

STATION/POSITION TIME  TEMP    WIND        PRES    WAVE
                       AIR SEA DIR/SP/G            HT/PER
                 (UTC) (F)     (DEG/KT/KT) (MB)    (FT/S)
W MID LAKE BUOY  1950   54 55   40/ 12/ 16 1015.7F   1/ 2
DEVILS ISLAND    2000   59      60/ 14/ 17 1015.1F
PORT WING        1840   74      30/ 18/ 20 1014.6F
SAXON HARBOR     2030   63      40/ 10/ 12 1013.5F
$$

LMZ867-665-643>646-212200-
LAKE MICHIGAN

STATION/POSITION TIME  TEMP    WIND        PRES    WAVE
                       AIR SEA DIR/SP/G            HT/PER
                 (UTC) (F)     (DEG/KT/KT) (MB)    (FT/S)
S GREEN BAY BUOY 2000   68 68   30/  6/  8 1015.9
N MID LAKE BUOY  1950   66 67  130/  6/  8 1017.1R   1/ 5
NORTHPORT PIER   2040   69     130/  4/  7 1015.9F
KEWAUNEE LAKESHO 2030   67     150/  2/  4 1015.6F
SHEBOYGAN LAKESH 2000   68     100/  5/  5 1015.8F
PORT WASHINGTON  2030   74     130/  1/  3 1016.9S
ATWATER BUOY     1909   71 67  180/  2/  4 1016.8F
MILWAUKEE LAKESH 2030   71      30/  2/  3   N/A
S MID LAKE BUOY  1950   72 71  120/  6/  6 1016.4F   1
KENOSHA   LAKESH 2000   79     120/  4/  6 1015.6
$$

TC  - TEMPERATURE IN CELSIUS
VSB - VISIBILITY IN STATUTE MILES
WCI - WIND CHILL INDEX
HX  - HEAT INDEX





USA.gov is the U.S. government's official web portal to all federal, state and local government web resources and services.